﻿測定場所 (Monitoring sites),日付 (Measurement date),時間 (Measurement time),線量率 最大値 (max) μGy/h,線量率 最小値 (min) μGy/h,線量率 平均値 (average) μGy/h,
小平 (Kodaira),2014-10-19,23:01～24:00,0.0351,0.0313,0.0332,
小平 (Kodaira),2014-10-19,22:01～23:00,0.0350,0.0311,0.0331,
小平 (Kodaira),2014-10-19,21:01～22:00,0.0350,0.0312,0.0329,
小平 (Kodaira),2014-10-19,20:01～21:00,0.0341,0.0309,0.0326,
小平 (Kodaira),2014-10-19,19:01～20:00,0.0351,0.0307,0.0328,
小平 (Kodaira),2014-10-19,18:01～19:00,0.0347,0.0302,0.0327,
小平 (Kodaira),2014-10-19,17:01～18:00,0.0347,0.0307,0.0325,
小平 (Kodaira),2014-10-19,16:01～17:00,0.0346,0.0306,0.0325,
小平 (Kodaira),2014-10-19,15:01～16:00,0.0348,0.0314,0.0328,
小平 (Kodaira),2014-10-19,14:01～15:00,0.0351,0.0308,0.0327,
小平 (Kodaira),2014-10-19,13:01～14:00,0.0352,0.0305,0.0329,
小平 (Kodaira),2014-10-19,12:01～13:00,0.0348,0.0315,0.0331,
小平 (Kodaira),2014-10-19,11:01～12:00,0.0355,0.0320,0.0338,
小平 (Kodaira),2014-10-19,10:01～11:00,0.0361,0.0318,0.0341,
小平 (Kodaira),2014-10-19,09:01～10:00,0.0360,0.0314,0.0343,
小平 (Kodaira),2014-10-19,08:01～09:00,0.0373,0.0329,0.0350,
小平 (Kodaira),2014-10-19,07:01～08:00,0.0370,0.0324,0.0348,
小平 (Kodaira),2014-10-19,06:01～07:00,0.0368,0.0324,0.0345,
小平 (Kodaira),2014-10-19,05:01～06:00,0.0360,0.0325,0.0341,
小平 (Kodaira),2014-10-19,04:01～05:00,0.0356,0.0318,0.0339,
小平 (Kodaira),2014-10-19,03:01～04:00,0.0363,0.0322,0.0340,
小平 (Kodaira),2014-10-19,02:01～03:00,0.0356,0.0315,0.0339,
小平 (Kodaira),2014-10-19,01:01～02:00,0.0354,0.0317,0.0338,
小平 (Kodaira),2014-10-19,00:01～01:00,0.0358,0.0312,0.0333,
小平 (Kodaira),2014-10-18,23:01～24:00,0.0355,0.0313,0.0335,
小平 (Kodaira),2014-10-18,22:01～23:00,0.0356,0.0314,0.0332,
小平 (Kodaira),2014-10-18,21:01～22:00,0.0358,0.0318,0.0331,
小平 (Kodaira),2014-10-18,20:01～21:00,0.0356,0.0314,0.0333,
小平 (Kodaira),2014-10-18,19:01～20:00,0.0347,0.0303,0.0327,
小平 (Kodaira),2014-10-18,18:01～19:00,0.0362,0.0299,0.0324,
小平 (Kodaira),2014-10-18,17:01～18:00,0.0345,0.0307,0.0326,
小平 (Kodaira),2014-10-18,16:01～17:00,0.0355,0.0308,0.0329,
小平 (Kodaira),2014-10-18,15:01～16:00,0.0354,0.0303,0.0328,
小平 (Kodaira),2014-10-18,14:01～15:00,0.0356,0.0313,0.0328,
小平 (Kodaira),2014-10-18,13:01～14:00,0.0351,0.0316,0.0330,
小平 (Kodaira),2014-10-18,12:01～13:00,0.0349,0.0315,0.0331,
小平 (Kodaira),2014-10-18,11:01～12:00,0.0350,0.0309,0.0331,
小平 (Kodaira),2014-10-18,10:01～11:00,0.0353,0.0319,0.0336,
小平 (Kodaira),2014-10-18,09:01～10:00,0.0356,0.0312,0.0334,
小平 (Kodaira),2014-10-18,08:01～09:00,0.0355,0.0305,0.0333,
小平 (Kodaira),2014-10-18,07:01～08:00,0.0355,0.0310,0.0336,
小平 (Kodaira),2014-10-18,06:01～07:00,0.0347,0.0309,0.0332,
小平 (Kodaira),2014-10-18,05:01～06:00,0.0355,0.0311,0.0329,
小平 (Kodaira),2014-10-18,04:01～05:00,0.0355,0.0313,0.0333,
小平 (Kodaira),2014-10-18,03:01～04:00,0.0353,0.0313,0.0334,
小平 (Kodaira),2014-10-18,02:01～03:00,0.0349,0.0318,0.0331,
小平 (Kodaira),2014-10-18,01:01～02:00,0.0352,0.0308,0.0330,
小平 (Kodaira),2014-10-18,00:01～01:00,0.0348,0.0310,0.0328,
小平 (Kodaira),2014-10-17,23:01～24:00,0.0342,0.0310,0.0327,
小平 (Kodaira),2014-10-17,22:01～23:00,0.0347,0.0304,0.0327,
小平 (Kodaira),2014-10-17,21:01～22:00,0.0349,0.0300,0.0325,
小平 (Kodaira),2014-10-17,20:01～21:00,0.0349,0.0302,0.0326,
小平 (Kodaira),2014-10-17,19:01～20:00,0.0344,0.0309,0.0324,
小平 (Kodaira),2014-10-17,18:01～19:00,0.0350,0.0307,0.0326,
小平 (Kodaira),2014-10-17,17:01～18:00,0.0340,0.0309,0.0326,
小平 (Kodaira),2014-10-17,16:01～17:00,0.0348,0.0309,0.0328,
小平 (Kodaira),2014-10-17,15:01～16:00,0.0349,0.0317,0.0331,
小平 (Kodaira),2014-10-17,14:01～15:00,0.0346,0.0311,0.0329,
小平 (Kodaira),2014-10-17,13:01～14:00,0.0351,0.0308,0.0330,
小平 (Kodaira),2014-10-17,12:01～13:00,0.0354,0.0315,0.0332,
小平 (Kodaira),2014-10-17,11:01～12:00,0.0353,0.0305,0.0330,
小平 (Kodaira),2014-10-17,10:01～11:00,0.0364,0.0315,0.0336,
小平 (Kodaira),2014-10-17,09:01～10:00,0.0352,0.0318,0.0336,
小平 (Kodaira),2014-10-17,08:01～09:00,0.0375,0.0311,0.0342,
小平 (Kodaira),2014-10-17,07:01～08:00,0.0370,0.0317,0.0343,
小平 (Kodaira),2014-10-17,06:01～07:00,0.0362,0.0320,0.0340,
小平 (Kodaira),2014-10-17,05:01～06:00,0.0355,0.0315,0.0336,
小平 (Kodaira),2014-10-17,04:01～05:00,0.0355,0.0295,0.0329,
小平 (Kodaira),2014-10-17,03:01～04:00,0.0344,0.0307,0.0328,
小平 (Kodaira),2014-10-17,02:01～03:00,0.0348,0.0308,0.0326,
小平 (Kodaira),2014-10-17,01:01～02:00,0.0346,0.0305,0.0326,
小平 (Kodaira),2014-10-17,00:01～01:00,0.0349,0.0303,0.0326,
小平 (Kodaira),2014-10-16,23:01～24:00,0.0347,0.0305,0.0327,
小平 (Kodaira),2014-10-16,22:01～23:00,0.0349,0.0307,0.0327,
小平 (Kodaira),2014-10-16,21:01～22:00,0.0356,0.0294,0.0325,
小平 (Kodaira),2014-10-16,20:01～21:00,0.0340,0.0301,0.0324,
小平 (Kodaira),2014-10-16,19:01～20:00,0.0347,0.0304,0.0325,
小平 (Kodaira),2014-10-16,18:01～19:00,0.0336,0.0299,0.0321,
小平 (Kodaira),2014-10-16,17:01～18:00,0.0340,0.0303,0.0325,
小平 (Kodaira),2014-10-16,16:01～17:00,0.0347,0.0301,0.0323,
小平 (Kodaira),2014-10-16,15:01～16:00,0.0348,0.0304,0.0325,
小平 (Kodaira),2014-10-16,14:01～15:00,0.0344,0.0308,0.0326,
小平 (Kodaira),2014-10-16,13:01～14:00,0.0342,0.0301,0.0325,
小平 (Kodaira),2014-10-16,12:01～13:00,0.0350,0.0304,0.0327,
小平 (Kodaira),2014-10-16,11:01～12:00,0.0344,0.0308,0.0328,
小平 (Kodaira),2014-10-16,10:01～11:00,0.0361,0.0310,0.0327,
小平 (Kodaira),2014-10-16,09:01～10:00,0.0355,0.0309,0.0328,
小平 (Kodaira),2014-10-16,08:01～09:00,0.0343,0.0310,0.0329,
小平 (Kodaira),2014-10-16,07:01～08:00,0.0345,0.0301,0.0327,
小平 (Kodaira),2014-10-16,06:01～07:00,0.0349,0.0308,0.0329,
小平 (Kodaira),2014-10-16,05:01～06:00,0.0348,0.0302,0.0326,
小平 (Kodaira),2014-10-16,04:01～05:00,0.0344,0.0307,0.0328,
小平 (Kodaira),2014-10-16,03:01～04:00,0.0349,0.0307,0.0326,
小平 (Kodaira),2014-10-16,02:01～03:00,0.0345,0.0306,0.0325,
小平 (Kodaira),2014-10-16,01:01～02:00,0.0341,0.0302,0.0324,
小平 (Kodaira),2014-10-16,00:01～01:00,0.0348,0.0301,0.0325,
小平 (Kodaira),2014-10-15,23:01～24:00,0.0343,0.0299,0.0326,
小平 (Kodaira),2014-10-15,22:01～23:00,0.0347,0.0307,0.0326,
小平 (Kodaira),2014-10-15,21:01～22:00,0.0350,0.0300,0.0324,
小平 (Kodaira),2014-10-15,20:01～21:00,0.0353,0.0308,0.0328,
小平 (Kodaira),2014-10-15,19:01～20:00,0.0347,0.0307,0.0329,
小平 (Kodaira),2014-10-15,18:01～19:00,0.0349,0.0312,0.0333,
小平 (Kodaira),2014-10-15,17:01～18:00,0.0368,0.0324,0.0346,
小平 (Kodaira),2014-10-15,16:01～17:00,0.0377,0.0325,0.0351,
小平 (Kodaira),2014-10-15,15:01～16:00,0.0376,0.0335,0.0354,
小平 (Kodaira),2014-10-15,14:01～15:00,0.0396,0.0341,0.0365,
小平 (Kodaira),2014-10-15,13:01～14:00,0.0411,0.0353,0.0384,
小平 (Kodaira),2014-10-15,12:01～13:00,0.0427,0.0363,0.0389,
小平 (Kodaira),2014-10-15,11:01～12:00,0.0442,0.0374,0.0406,
小平 (Kodaira),2014-10-15,10:01～11:00,0.0434,0.0308,0.0372,
小平 (Kodaira),2014-10-15,09:01～10:00,0.0354,0.0303,0.0326,
小平 (Kodaira),2014-10-15,08:01～09:00,0.0345,0.0300,0.0326,
小平 (Kodaira),2014-10-15,07:01～08:00,0.0346,0.0305,0.0327,
小平 (Kodaira),2014-10-15,06:01～07:00,0.0344,0.0305,0.0324,
小平 (Kodaira),2014-10-15,05:01～06:00,0.0348,0.0307,0.0327,
小平 (Kodaira),2014-10-15,04:01～05:00,0.0345,0.0306,0.0326,
小平 (Kodaira),2014-10-15,03:01～04:00,0.0346,0.0303,0.0328,
小平 (Kodaira),2014-10-15,02:01～03:00,0.0349,0.0303,0.0332,
小平 (Kodaira),2014-10-15,01:01～02:00,0.0363,0.0315,0.0341,
小平 (Kodaira),2014-10-15,00:01～01:00,0.0361,0.0308,0.0331,
小平 (Kodaira),2014-10-14,23:01～24:00,0.0343,0.0305,0.0323,
小平 (Kodaira),2014-10-14,22:01～23:00,0.0344,0.0294,0.0323,
小平 (Kodaira),2014-10-14,21:01～22:00,0.0345,0.0308,0.0327,
小平 (Kodaira),2014-10-14,20:01～21:00,0.0342,0.0304,0.0324,
小平 (Kodaira),2014-10-14,19:01～20:00,0.0342,0.0304,0.0323,
小平 (Kodaira),2014-10-14,18:01～19:00,0.0347,0.0308,0.0328,
小平 (Kodaira),2014-10-14,17:01～18:00,0.0346,0.0295,0.0323,
小平 (Kodaira),2014-10-14,16:01～17:00,0.0345,0.0305,0.0323,
小平 (Kodaira),2014-10-14,15:01～16:00,0.0346,0.0300,0.0325,
小平 (Kodaira),2014-10-14,14:01～15:00,0.0346,0.0310,0.0328,
小平 (Kodaira),2014-10-14,13:01～14:00,0.0342,0.0305,0.0326,
小平 (Kodaira),2014-10-14,12:01～13:00,0.0349,0.0310,0.0326,
小平 (Kodaira),2014-10-14,11:01～12:00,0.0356,0.0307,0.0326,
小平 (Kodaira),2014-10-14,10:01～11:00,0.0357,0.0307,0.0328,
小平 (Kodaira),2014-10-14,09:01～10:00,0.0344,0.0301,0.0326,
小平 (Kodaira),2014-10-14,08:01～09:00,0.0352,0.0311,0.0330,
小平 (Kodaira),2014-10-14,07:01～08:00,0.0343,0.0308,0.0325,
小平 (Kodaira),2014-10-14,06:01～07:00,0.0355,0.0302,0.0333,
小平 (Kodaira),2014-10-14,05:01～06:00,0.0374,0.0324,0.0348,
小平 (Kodaira),2014-10-14,04:01～05:00,0.0359,0.0322,0.0337,
小平 (Kodaira),2014-10-14,03:01～04:00,0.0389,0.0319,0.0354,
小平 (Kodaira),2014-10-14,02:01～03:00,0.0419,0.0347,0.0375,
小平 (Kodaira),2014-10-14,01:01～02:00,0.0441,0.0369,0.0404,
小平 (Kodaira),2014-10-14,00:01～01:00,0.0452,0.0378,0.0407,
小平 (Kodaira),2014-10-13,23:01～24:00,0.0455,0.0379,0.0430,
小平 (Kodaira),2014-10-13,22:01～23:00,0.0473,0.0390,0.0434,
小平 (Kodaira),2014-10-13,21:01～22:00,0.0452,0.0390,0.0418,
小平 (Kodaira),2014-10-13,20:01～21:00,0.0464,0.0390,0.0427,
小平 (Kodaira),2014-10-13,19:01～20:00,0.0445,0.0395,0.0420,
小平 (Kodaira),2014-10-13,18:01～19:00,0.0458,0.0393,0.0419,
小平 (Kodaira),2014-10-13,17:01～18:00,0.0506,0.0393,0.0444,
小平 (Kodaira),2014-10-13,16:01～17:00,0.0506,0.0396,0.0447,
小平 (Kodaira),2014-10-13,15:01～16:00,0.0430,0.0364,0.0396,
小平 (Kodaira),2014-10-13,14:01～15:00,0.0394,0.0330,0.0352,
小平 (Kodaira),2014-10-13,13:01～14:00,0.0359,0.0314,0.0338,
小平 (Kodaira),2014-10-13,12:01～13:00,0.0369,0.0314,0.0343,
小平 (Kodaira),2014-10-13,11:01～12:00,0.0380,0.0335,0.0355,
小平 (Kodaira),2014-10-13,10:01～11:00,0.0408,0.0352,0.0369,
小平 (Kodaira),2014-10-13,09:01～10:00,0.0391,0.0328,0.0356,
小平 (Kodaira),2014-10-13,08:01～09:00,0.0363,0.0319,0.0337,
小平 (Kodaira),2014-10-13,07:01～08:00,0.0357,0.0320,0.0339,
小平 (Kodaira),2014-10-13,06:01～07:00,0.0360,0.0316,0.0338,
小平 (Kodaira),2014-10-13,05:01～06:00,0.0360,0.0319,0.0342,
小平 (Kodaira),2014-10-13,04:01～05:00,0.0370,0.0322,0.0343,
小平 (Kodaira),2014-10-13,03:01～04:00,0.0362,0.0325,0.0344,
小平 (Kodaira),2014-10-13,02:01～03:00,0.0361,0.0316,0.0338,
小平 (Kodaira),2014-10-13,01:01～02:00,0.0350,0.0318,0.0336,
小平 (Kodaira),2014-10-13,00:01～01:00,0.0351,0.0311,0.0335,
